DW7875 Weather Reports


Display with metric or nautical units.
time (UTC)temp
F
wind
direction
speed
MPH
gust
MPH
rain 1hr
in
rain 24hr
in
rain mn
in
humidity
%
barometer
mb
20260904020015 80 210 0.0 1.0 0.00 0.00 0.00 80 1013.1
20260904014515 80 212 0.0 2.0 0.00 0.00 0.00 80 1012.8
20260904013014 80 212 0.0 1.0 0.00 0.00 0.00 79 1012.8
20260904011521 80 212 0.0 1.0 0.00 0.00 0.00 79 1013.1
20260904010013 80 212 0.0 1.0 0.00 0.00 0.00 79 1013.4
20260904004515 81 212 0.0 0.0 0.00 0.00 0.00 78 1013.6
20260904003013 81 212 0.0 0.0 0.00 0.00 0.00 77 1013.6
20260904001513 82 212 0.0 0.0 0.00 0.00 0.00 76 1013.6
20260904000032 82 213 0.0 0.0 0.00 0.00 0.00 75 1013.3
20260903234511 83 213 0.0 0.0 0.00 0.00 0.00 74 1013.0
20260903233011 84 213 0.0 1.0 0.00 0.00 0.00 74 1012.8
20260903231512 84 214 0.0 0.0 0.00 0.00 0.00 73 1012.8
20260903230019 85 214 0.0 1.0 0.00 0.00 0.00 72 1012.8
20260903224525 86 214 0.0 1.0 0.00 0.00 0.00 70 1012.7
20260903223009 86 213 0.0 3.0 0.00 0.00 0.00 70 1012.6
20260903221508 86 207 1.0 3.0 0.00 0.00 0.00 70 1012.6
20260903220011 87 207 0.0 4.0 0.00 0.00 0.00 70 1012.6
20260903214507 88 186 1.0 4.0 0.00 0.00 0.00 68 1012.7
20260903213015 88 203 1.0 4.0 0.00 0.00 0.00 67 1012.7
20260903211504 89 123 1.0 5.0 0.00 0.00 0.00 66 1012.8
20260903210006 89 150 0.0 4.0 0.00 0.00 0.00 68 1012.9
20260903204502 89 127 1.0 4.0 0.00 0.00 0.00 66 1012.9
20260903203000 90 198 0.0 4.0 0.00 0.00 0.00 65 1013.2
20260903201601 89 106 1.0 4.0 0.00 0.00 0.00 67 1013.3
20260903200056 89 159 0.0 0.0 0.00 0.00 0.00 69 1013.6
20260903194557 90 159 0.0 0.0 0.00 0.00 0.00 63 1013.8
20260903193056 92 172 0.0 3.0 0.00 0.00 0.00 63 1013.8
20260903191552 91 186 0.0 3.0 0.00 0.00 0.00 66 1014.0
20260903190059 90 281 1.0 6.0 0.00 0.00 0.00 66 1014.4
20260903184547 90 1 1.0 4.0 0.00 0.07 0.00 68 1014.3
20260903183046 89 84 1.0 3.0 0.00 0.07 0.00 69 1014.0
20260903181548 89 255 1.0 4.0 0.00 0.07 0.00 68 1014.5
20260903180044 88 31 2.0 5.0 0.00 0.07 0.00 72 1014.7
20260903174536 87 125 1.0 4.0 0.00 0.07 0.00 73 1014.8
20260903173030 85 281 1.0 4.0 0.00 0.07 0.00 78 1015.2
20260903171535 83 1 0.0 2.0 0.00 0.07 0.00 81 1015.5
20260903170030 83 1 1.0 3.0 0.00 0.07 0.00 80 1015.7
20260903164525 83 185 0.0 5.0 0.00 0.07 0.00 81 1016.1
20260903163032 83 359 2.0 5.0 0.00 0.07 0.00 80 1016.8
20260903161523 83 114 0.0 3.0 0.00 0.07 0.00 81 1016.6
20260903160021 83 88 0.0 3.0 0.00 0.07 0.00 81 1016.6
20260903154519 82 84 0.0 2.0 0.00 0.07 0.00 81 1016.6
20260903153018 82 253 0.0 3.0 0.00 0.07 0.00 82 1016.5
20260903151515 81 201 0.0 4.0 0.00 0.07 0.00 84 1016.3
20260903150010 80 165 0.0 3.0 0.00 0.07 0.00 85 1016.3
20260903144509 79 128 0.0 4.0 0.00 0.07 0.00 85 1016.4
20260903143008 79 183 0.0 3.0 0.00 0.07 0.00 85 1016.0
20260903141506 79 146 0.0 3.0 0.00 0.07 0.00 86 1015.8
20260903140006 78 143 1.0 3.0 0.00 0.07 0.00 86 1015.9
20260903134600 77 143 0.0 2.0 0.00 0.07 0.00 87 1016.2
20260903133102 77 143 0.0 2.0 0.00 0.07 0.00 88 1016.4
20260903131558 76 143 0.0 2.0 0.00 0.07 0.00 88 1016.8
20260903130058 76 143 0.0 2.0 0.00 0.07 0.00 88 1017.1
20260903124603 76 143 0.0 2.0 0.00 0.07 0.00 88 1017.5
20260903123056 76 143 0.0 2.0 0.00 0.07 0.00 88 1017.8
20260903121555 76 143 0.0 2.0 0.00 0.07 0.00 88 1017.5
20260903120053 77 143 1.0 2.0 0.00 0.07 0.00 88 1017.3
20260903114612 77 143 1.0 2.0 0.00 0.07 0.00 88 1017.4
20260903113049 77 143 0.0 2.0 0.00 0.07 0.00 88 1017.2
20260903111553 77 143 0.0 2.0 0.00 0.07 0.00 88 1016.9
20260903110045 76 143 0.0 3.0 0.00 0.07 0.00 88 1016.0
20260903104544 76 140 1.0 3.0 0.00 0.07 0.00 88 1015.6
20260903103050 76 202 1.0 3.0 0.00 0.07 0.00 89 1015.7
20260903101546 73 212 0.0 2.0 0.00 0.07 0.00 88 1015.8
20260903100043 73 224 0.0 0.0 0.00 0.07 0.00 88 1016.1
20260903094538 73 224 0.0 0.0 0.00 0.07 0.00 88 1016.0
20260903093102 73 224 0.0 0.0 0.00 0.07 0.00 88 1016.2
20260903091540 73 224 0.0 0.0 0.00 0.07 0.00 87 1016.2
20260903090042 73 224 0.0 0.0 0.00 0.07 0.00 87 1016.1
20260903084536 73 224 0.0 0.0 0.00 0.07 0.00 87 1016.0
20260903083035 73 224 0.0 0.0 0.00 0.07 0.00 87 1015.8
20260903081537 73 224 0.0 0.0 0.00 0.07 0.00 87 1015.9
20260903080033 73 224 0.0 0.0 0.00 0.07 0.00 87 1016.2
20260903074533 74 224 0.0 0.0 0.00 0.07 0.00 87 1016.0
20260903073033 74 224 0.0 0.0 0.00 0.07 0.00 87 1016.1
20260903071533 74 224 0.0 0.0 0.00 0.07 0.00 86 1015.9
20260903070052 74 224 0.0 0.0 0.00 0.07 0.00 86 1015.9
20260903064533 75 224 0.0 2.0 0.00 0.07 0.00 86 1016.0
20260903063030 75 224 0.0 5.0 0.00 0.07 0.00 87 1015.9
20260903061529 75 122 1.0 2.0 0.00 0.07 0.00 87 1015.8
20260903060027 75 123 0.0 2.0 0.00 0.07 0.00 87 1016.2
20260903054535 75 122 1.0 3.0 0.00 0.07 0.00 88 1016.1
20260903053024 75 99 0.0 2.0 0.00 0.07 0.00 88 1016.5
20260903051524 74 99 0.0 2.0 0.00 0.07 0.00 88 1016.4
20260903050022 74 97 0.0 0.0 0.00 0.07 0.00 88 1016.3
20260903044518 74 97 0.0 0.0 0.00 0.07 0.00 88 1016.5
20260903043021 73 97 0.0 0.0 0.00 0.07 0.00 88 1016.7
20260903041519 73 97 0.0 0.0 0.00 0.07 0.00 88 1016.6
20260903040010 73 97 0.0 0.0 0.00 0.07 0.00 88 1016.5
20260903034514 73 97 0.0 0.0 0.00 0.07 0.07 88 1016.4
20260903033009 73 97 0.0 0.0 0.00 0.07 0.07 88 1016.8
20260903031609 73 97 0.0 0.0 0.00 0.07 0.07 88 1016.8
20260903030008 72 97 0.0 0.0 0.00 0.07 0.07 88 1016.8
20260903024508 72 97 0.0 0.0 0.00 0.07 0.07 88 1016.8
20260903023026 72 97 0.0 0.0 0.00 0.07 0.07 87 1016.7
20260903021506 72 97 0.0 0.0 0.00 0.07 0.07 87 1016.8